GW3608 Weather Reports


Display with metric or nautical units.
time (UTC)temp
F
wind
direction
speed
MPH
gust
MPH
rain 1hr
in
rain 24hr
in
rain mn
in
humidity
%
barometer
mb
20260509041514 43 32 0.0 0.0 0.00 0.00 0.00 73 1011.8
20260509040019 43 32 0.0 0.0 0.00 0.00 0.00 73 1011.9
20260509034524 43 32 0.0 0.0 0.00 0.00 0.00 76 1011.8
20260509033027 42 32 0.0 0.0 0.00 0.00 0.00 76 1011.8
20260509031531 42 32 0.0 0.0 0.00 0.00 0.00 75 1011.8
20260509030025 42 32 0.0 0.0 0.00 0.00 0.00 74 1012.0
20260509024524 42 32 0.0 0.0 0.00 0.00 0.00 73 1012.1
20260509023028 43 32 0.0 0.0 0.00 0.00 0.00 72 1011.9
20260509021526 44 32 0.0 0.0 0.00 0.00 0.00 72 1011.9
20260509020026 44 32 0.0 0.0 0.00 0.00 0.00 70 1012.0
20260509014522 44 32 0.0 0.0 0.00 0.00 0.00 70 1011.9
20260509013041 45 32 0.0 0.0 0.00 0.00 0.00 68 1011.9
20260509011527 46 32 0.0 0.0 0.00 0.00 0.00 69 1011.8
20260509010027 46 32 0.0 0.0 0.00 0.00 0.00 66 1011.5
20260509004549 46 32 0.0 0.0 0.00 0.00 0.00 66 1011.3
20260509003029 47 32 0.0 0.0 0.00 0.00 0.00 63 1011.1
20260509001523 48 32 0.0 0.0 0.00 0.00 0.00 60 1011.0
20260509000025 50 32 0.0 0.0 0.00 0.00 0.00 60 1010.9
20260508234528 50 32 0.0 0.0 0.00 0.00 0.00 57 1010.8
20260508233028 51 32 0.0 0.0 0.00 0.00 0.00 54 1010.5
20260508231522 52 32 0.0 0.0 0.00 0.00 0.00 52 1010.5
20260508230038 53 32 0.0 2.0 0.00 0.00 0.00 48 1010.4
20260508224508 52 149 0.0 2.0 0.00 0.00 0.00 49 1010.6
20260508223017 52 38 0.0 3.0 0.00 0.00 0.00 48 1010.5
20260508221512 53 59 0.0 3.0 0.00 0.00 0.00 50 1010.4
20260508220015 52 84 0.0 2.0 0.00 0.00 0.00 48 1010.6
20260508214512 52 5 0.0 2.0 0.00 0.00 0.00 52 1010.7
20260508213011 52 348 0.0 2.0 0.00 0.00 0.00 49 1010.7
20260508211513 53 352 0.0 3.0 0.00 0.00 0.00 47 1010.7
20260508210012 53 267 1.0 6.0 0.00 0.00 0.00 49 1010.8
20260508203015 52 274 1.0 4.0 0.00 0.00 0.00 48 1011.1
20260508201515 53 32 2.0 5.0 0.00 0.00 0.00 48 1011.1
20260508200017 53 277 0.0 8.0 0.00 0.00 0.00 49 1011.3
20260508194518 53 65 0.0 7.0 0.00 0.00 0.00 51 1011.3
20260508193016 52 32 1.0 8.0 0.00 0.00 0.00 55 1011.6
20260508191517 52 267 1.0 9.0 0.00 0.00 0.00 53 1011.7
20260508190017 51 277 6.0 12.0 0.00 0.00 0.00 54 1011.9
20260508184535 51 259 3.0 10.0 0.00 0.00 0.00 55 1012.2
20260508183018 51 267 2.0 4.0 0.00 0.00 0.00 60 1012.3
20260508181536 49 288 0.0 6.0 0.00 0.00 0.00 62 1012.4
20260508180016 50 296 1.0 7.0 0.00 0.00 0.00 60 1012.4
20260508174519 49 260 1.0 7.0 0.00 0.00 0.00 69 1012.4
20260508173018 46 178 1.0 3.0 0.00 0.00 0.00 72 1012.6
20260508171520 44 244 0.0 6.0 0.00 0.00 0.00 71 1012.6
20260508170028 44 347 0.0 4.0 0.00 0.00 0.00 75 1012.7
20260508164520 44 15 0.0 3.0 0.00 0.00 0.00 75 1012.8
20260508163020 43 41 0.0 7.0 0.00 0.00 0.00 78 1012.8
20260508161522 42 57 1.0 6.0 0.00 0.00 0.00 83 1013.0
20260508160023 41 315 1.0 6.0 0.00 0.00 0.00 83 1013.1
20260508154522 42 28 1.0 5.0 0.00 0.00 0.00 81 1012.8
20260508153020 42 360 0.0 5.0 0.00 0.00 0.00 79 1012.6
20260508151525 42 9 0.0 4.0 0.00 0.00 0.00 78 1012.5
20260508150023 41 283 0.0 2.0 0.00 0.00 0.00 80 1012.2
20260508144543 41 298 0.0 3.0 0.00 0.00 0.00 81 1012.7
20260508143023 40 277 0.0 2.0 0.00 0.00 0.00 82 1012.5
20260508141521 40 42 0.0 5.0 0.00 0.00 0.00 81 1012.6
20260508140024 40 304 1.0 3.0 0.00 0.00 0.00 81 1012.5
20260508134510 41 277 0.0 2.0 0.00 0.00 0.00 82 1012.3
20260508133023 41 263 0.0 2.0 0.00 0.00 0.00 81 1012.0
20260508131519 41 268 0.0 2.0 0.00 0.00 0.00 81 1012.0
20260508130026 41 163 0.0 1.0 0.00 0.00 0.00 80 1011.8
20260508124508 41 124 0.0 1.0 0.00 0.00 0.00 81 1011.5
20260508123012 40 269 0.0 2.0 0.00 0.00 0.00 82 1011.7
20260508121518 40 252 0.0 2.0 0.00 0.00 0.00 82 1011.8
20260508120019 40 300 0.0 0.0 0.00 0.00 0.00 83 1011.6
20260508114524 39 278 0.0 0.0 0.00 0.00 0.00 85 1011.7
20260508113011 39 277 0.0 0.0 0.00 0.00 0.00 87 1011.9
20260508111514 38 278 0.0 0.0 0.00 0.00 0.00 88 1011.9
20260508110037 38 278 0.0 0.0 0.00 0.00 0.00 88 1011.8
20260508104522 37 278 0.0 0.0 0.00 0.00 0.00 89 1011.7
20260508103026 36 278 0.0 0.0 0.00 0.00 0.00 90 1011.9
20260508101527 35 276 0.0 0.0 0.00 0.00 0.00 89 1011.9
20260508100021 35 235 0.0 0.0 0.00 0.00 0.00 89 1011.9
20260508094522 36 235 0.0 0.0 0.00 0.00 0.00 87 1012.0
20260508093028 36 235 0.0 0.0 0.00 0.00 0.00 86 1011.7
20260508091526 37 235 0.0 0.0 0.00 0.00 0.00 87 1011.6
20260508090029 37 235 0.0 0.0 0.00 0.00 0.00 86 1011.4
20260508084520 38 235 0.0 0.0 0.00 0.00 0.00 85 1011.3
20260508083022 38 242 0.0 0.0 0.00 0.00 0.00 87 1011.5
20260508081526 38 239 0.0 0.0 0.00 0.00 0.00 87 1011.3
20260508080027 38 171 0.0 0.0 0.00 0.00 0.00 86 1011.1
20260508074535 40 141 0.0 1.0 0.00 0.00 0.00 86 1010.9
20260508073018 40 221 0.0 1.0 0.00 0.00 0.00 85 1011.1
20260508071524 41 232 0.0 3.0 0.00 0.00 0.00 86 1011.1
20260508070028 41 247 0.0 4.0 0.00 0.00 0.00 86 1011.0
20260508064529 40 119 0.0 1.0 0.00 0.00 0.00 85 1011.0
20260508063028 41 227 0.0 1.0 0.00 0.00 0.00 84 1011.0
20260508061522 41 111 0.0 0.0 0.00 0.00 0.00 81 1010.9
20260508060025 40 111 0.0 0.0 0.00 0.00 0.00 81 1010.9
20260508054524 39 111 0.0 0.0 0.00 0.00 0.00 82 1010.9
20260508053043 39 111 0.0 0.0 0.00 0.00 0.00 80 1011.0
20260508051525 40 111 0.0 0.0 0.00 0.00 0.00 76 1011.1
20260508050021 42 111 0.0 1.0 0.00 0.00 0.00 73 1011.2
20260508044507 43 46 0.0 1.0 0.00 0.00 0.00 72 1011.4
20260508043010 43 248 0.0 0.0 0.00 0.00 0.00 69 1011.4